GFSFLT1_prec_precacc_234.txt.gz
Total_Precipitation_Accumulation
0.00 0.01 0.03 0.04 0.09 0.38 0.79 1.20 1.72 2.90 2.09 1.22 0.73 0.71 0.74 0.74 0.85 0.90 1.45 0.96 0.91 0.95 0.56 0.49 0.42 0.25 0.15 0.14 0.13 0.18 0.12 0.17
0.01 0.01 0.04 0.03 0.16 0.53 0.85 0.92 1.05 0.95 0.50 0.42 0.42 0.58 0.78 0.89 0.96 0.80 1.45 1.20 0.79 1.03 1.14 0.66 0.57 0.37 0.27 0.19 0.22 0.21 0.25 0.22
0.01 0.05 0.11 0.18 0.33 0.38 0.26 0.15 0.11 0.17 0.19 0.23 0.23 0.29 0.47 0.56 1.17 0.89 1.10 1.29 0.69 0.67 0.98 1.02 0.93 0.63 0.60 0.54 0.41 0.29 0.23 0.31
0.04 0.06 0.07 0.06 0.04 0.10 0.08 0.08 0.09 0.11 0.14 0.16 0.23 0.23 0.34 0.56 1.22 1.29 0.93 1.29 0.92 0.60 0.78 0.89 0.92 0.77 0.64 0.52 0.57 0.47 0.33 0.30
0.01 0.01 0.02 0.01 0.07 0.03 0.09 0.13 0.08 0.08 0.10 0.11 0.13 0.14 0.18 0.32 0.69 1.01 1.09 1.10 0.98 0.74 0.72 0.78 0.86 0.66 0.55 0.40 0.40 0.43 0.49 0.37
0.05 0.10 0.04 0.03 0.04 0.09 0.16 0.16 0.17 0.19 0.15 0.16 0.20 0.20 0.25 0.28 0.50 1.03 1.14 1.21 1.38 1.15 1.02 1.11 0.94 0.93 0.68 0.59 0.54 0.57 0.52 0.45
0.35 0.18 0.04 0.02 0.07 0.14 0.24 0.23 0.27 0.30 0.30 0.26 0.31 0.37 0.28 0.28 0.41 0.96 1.28 1.27 1.26 1.33 1.75 1.79 1.57 1.38 1.40 1.08 0.88 0.74 0.60 0.57
0.19 0.17 0.10 0.09 0.15 0.23 0.36 0.36 0.38 0.40 0.39 0.48 0.42 0.37 0.35 0.30 0.30 0.44 0.99 1.50 1.54 1.23 1.32 1.84 1.87 1.72 1.63 1.55 1.62 1.57 1.29 1.22
0.22 0.20 0.15 0.16 0.16 0.29 0.48 0.54 0.47 0.46 0.47 0.53 0.55 0.41 0.35 0.37 0.42 0.51 0.46 0.85 1.46 2.08 1.73 1.60 1.83 1.65 2.01 2.25 2.27 2.39 2.40 2.35
0.40 0.37 0.22 0.17 0.17 0.27 0.46 0.50 0.40 0.47 0.52 0.53 0.65 0.74 0.68 0.71 0.88 1.03 1.09 1.31 1.69 2.57 3.28 3.01 2.83 2.96 2.52 2.74 2.85 2.64 2.68 2.54
0.63 0.68 0.44 0.25 0.19 0.33 0.46 0.43 0.49 0.58 0.85 0.93 1.02 0.93 0.84 0.76 0.97 1.53 1.90 1.50 1.86 1.98 2.60 3.46 3.62 3.48 3.49 3.23 3.13 2.70 2.57 2.39
0.91 0.96 0.75 0.45 0.31 0.37 0.47 0.54 0.52 0.61 0.78 0.96 1.18 1.53 1.80 1.69 1.55 2.02 2.31 1.98 2.13 2.81 2.72 2.77 3.19 3.20 3.74 3.85 3.41 3.14 2.91 2.63
1.30 1.20 0.86 0.63 0.52 0.41 0.33 0.54 0.83 0.72 0.83 1.08 1.11 1.34 1.89 2.40 2.58 2.71 3.37 3.75 3.12 3.23 3.13 2.49 2.29 2.33 2.61 3.48 3.36 2.81 2.63 2.33
1.40 1.90 1.56 0.93 0.67 0.60 0.52 0.48 0.73 0.86 1.10 1.23 1.76 2.08 2.03 2.29 2.32 2.29 2.50 2.96 2.69 3.00 2.94 2.75 2.40 2.24 2.34 2.40 3.05 3.04 2.38 2.18
1.60 1.81 2.11 1.52 1.37 1.15 0.91 0.75 0.75 0.92 0.99 1.25 1.23 1.52 1.91 2.12 2.39 2.55 3.12 3.11 3.27 3.44 3.65 2.62 2.16 2.00 1.82 1.72 1.75 2.25 2.55 2.16
0.96 1.09 1.60 1.42 1.33 1.22 0.93 0.84 0.85 0.78 0.77 0.97 1.36 1.11 1.31 1.37 1.51 1.77 2.03 2.47 2.86 3.40 3.57 3.11 2.36 2.18 2.04 1.74 1.60 1.56 1.95 2.38
0.94 0.80 0.77 0.81 0.79 0.79 0.74 0.84 0.82 0.95 0.92 0.81 0.89 0.89 0.91 1.01 1.03 1.12 1.15 1.23 1.29 1.62 2.24 2.93 2.92 2.37 2.60 2.29 1.94 1.73 1.73 2.02
0.73 0.69 0.68 0.66 0.55 0.59 0.70 0.64 0.68 0.54 0.84 0.90 0.72 0.77 0.87 0.70 0.71 0.75 0.78 0.89 1.18 1.20 1.16 1.46 2.03 2.18 3.03 2.97 2.89 1.87 1.82 1.88
0.44 0.24 0.22 0.26 0.34 0.37 0.48 0.60 0.54 0.59 0.54 0.52 0.75 0.61 0.47 0.47 0.50 0.62 0.67 0.85 0.91 0.93 1.07 1.05 1.17 1.40 2.02 2.31 3.41 3.19 2.19 1.95

GFSFLT1_prec_precacc_237.txt.gz
Total_Precipitation_Accumulation
0.00 0.01 0.03 0.04 0.09 0.38 0.79 1.20 1.72 2.90 2.09 1.22 0.73 0.71 0.74 0.74 0.85 0.90 1.45 0.96 0.91 0.95 0.56 0.49 0.42 0.25 0.15 0.14 0.13 0.18 0.13 0.17
0.01 0.01 0.04 0.03 0.16 0.53 0.85 0.92 1.05 0.95 0.50 0.42 0.42 0.58 0.78 0.89 0.96 0.80 1.45 1.20 0.79 1.03 1.14 0.66 0.57 0.37 0.27 0.20 0.25 0.27 0.36 0.29
0.01 0.05 0.11 0.18 0.33 0.38 0.26 0.15 0.11 0.17 0.19 0.23 0.23 0.29 0.47 0.56 1.17 0.89 1.10 1.29 0.69 0.67 0.98 1.02 0.94 0.66 0.66 0.62 0.49 0.36 0.30 0.37
0.04 0.06 0.07 0.06 0.04 0.10 0.08 0.08 0.09 0.11 0.14 0.16 0.23 0.23 0.34 0.56 1.22 1.29 0.93 1.29 0.92 0.60 0.78 0.89 0.94 0.81 0.71 0.55 0.58 0.50 0.39 0.31
0.01 0.01 0.02 0.01 0.07 0.03 0.09 0.13 0.08 0.08 0.10 0.11 0.13 0.14 0.18 0.32 0.69 1.01 1.09 1.10 0.98 0.74 0.72 0.78 0.87 0.67 0.57 0.42 0.41 0.45 0.50 0.38
0.05 0.10 0.04 0.03 0.04 0.09 0.16 0.16 0.17 0.19 0.15 0.16 0.20 0.20 0.25 0.28 0.50 1.03 1.15 1.21 1.38 1.15 1.02 1.12 0.95 0.93 0.68 0.59 0.55 0.59 0.53 0.45
0.35 0.18 0.04 0.02 0.07 0.14 0.24 0.23 0.27 0.30 0.30 0.26 0.31 0.37 0.28 0.28 0.41 0.97 1.28 1.27 1.26 1.41 1.78 1.80 1.59 1.41 1.40 1.09 0.88 0.74 0.61 0.57
0.19 0.17 0.10 0.09 0.15 0.23 0.36 0.36 0.38 0.40 0.39 0.48 0.42 0.37 0.35 0.30 0.31 0.46 0.99 1.54 1.66 1.32 1.34 1.86 1.88 1.72 1.63 1.55 1.62 1.57 1.29 1.22
0.22 0.20 0.15 0.16 0.16 0.29 0.48 0.54 0.47 0.46 0.47 0.53 0.55 0.41 0.35 0.37 0.42 0.54 0.51 0.92 1.53 2.10 1.75 1.61 1.83 1.65 2.01 2.25 2.27 2.39 2.40 2.35
0.40 0.37 0.22 0.17 0.17 0.27 0.46 0.50 0.40 0.47 0.52 0.53 0.66 0.74 0.68 0.71 0.91 1.07 1.12 1.34 1.73 2.62 3.31 3.03 2.84 2.96 2.52 2.74 2.85 2.64 2.68 2.54
0.63 0.68 0.44 0.25 0.19 0.33 0.46 0.43 0.49 0.58 0.85 0.93 1.02 0.93 0.85 0.79 1.01 1.56 1.92 1.53 1.89 2.01 2.61 3.46 3.62 3.48 3.49 3.23 3.13 2.70 2.57 2.39
0.91 0.96 0.75 0.45 0.31 0.37 0.47 0.54 0.52 0.61 0.78 0.96 1.18 1.54 1.81 1.71 1.61 2.05 2.31 1.99 2.13 2.81 2.72 2.77 3.19 3.20 3.74 3.85 3.41 3.14 2.91 2.63
1.30 1.20 0.86 0.63 0.52 0.41 0.33 0.54 0.83 0.72 0.83 1.08 1.11 1.35 1.90 2.42 2.61 2.74 3.39 3.76 3.12 3.23 3.13 2.49 2.29 2.33 2.61 3.48 3.36 2.81 2.63 2.33
1.40 1.90 1.56 0.93 0.67 0.60 0.52 0.48 0.73 0.86 1.10 1.24 1.77 2.10 2.03 2.30 2.34 2.30 2.50 2.96 2.69 3.00 2.94 2.75 2.40 2.24 2.34 2.40 3.05 3.04 2.38 2.18
1.60 1.81 2.11 1.52 1.37 1.15 0.91 0.75 0.75 0.92 0.99 1.26 1.25 1.53 1.93 2.16 2.42 2.58 3.13 3.11 3.27 3.44 3.65 2.62 2.16 2.00 1.82 1.72 1.75 2.25 2.55 2.16
0.96 1.09 1.60 1.42 1.33 1.22 0.93 0.84 0.85 0.78 0.77 0.97 1.36 1.12 1.33 1.38 1.52 1.78 2.03 2.47 2.86 3.40 3.57 3.11 2.36 2.18 2.04 1.74 1.60 1.56 1.95 2.38
0.94 0.80 0.77 0.81 0.79 0.79 0.74 0.84 0.82 0.95 0.92 0.81 0.89 0.90 0.93 1.02 1.03 1.12 1.15 1.23 1.29 1.62 2.24 2.93 2.92 2.37 2.60 2.29 1.94 1.73 1.73 2.02
0.73 0.69 0.68 0.66 0.55 0.59 0.70 0.64 0.68 0.54 0.84 0.90 0.72 0.78 0.88 0.71 0.72 0.75 0.78 0.89 1.18 1.20 1.16 1.46 2.03 2.18 3.03 2.97 2.89 1.87 1.82 1.88
0.44 0.24 0.22 0.26 0.34 0.37 0.48 0.60 0.54 0.59 0.54 0.53 0.75 0.61 0.47 0.47 0.50 0.62 0.67 0.85 0.91 0.93 1.07 1.05 1.17 1.40 2.02 2.31 3.41 3.19 2.19 1.95

GFSFLT1_prec_precacc_240.txt.gz
Total_Precipitation_Accumulation
0.00 0.01 0.03 0.04 0.09 0.38 0.79 1.20 1.72 2.90 2.09 1.22 0.73 0.71 0.74 0.74 0.85 0.90 1.45 0.96 0.91 0.95 0.56 0.49 0.42 0.25 0.15 0.14 0.13 0.19 0.13 0.19
0.01 0.01 0.04 0.03 0.16 0.53 0.85 0.92 1.05 0.95 0.50 0.42 0.42 0.58 0.78 0.89 0.96 0.80 1.45 1.20 0.79 1.03 1.14 0.66 0.57 0.37 0.27 0.20 0.25 0.29 0.38 0.35
0.01 0.05 0.11 0.18 0.33 0.38 0.26 0.15 0.11 0.17 0.19 0.23 0.23 0.29 0.47 0.56 1.17 0.89 1.10 1.29 0.69 0.67 0.98 1.02 0.94 0.66 0.67 0.64 0.53 0.43 0.37 0.47
0.04 0.06 0.07 0.06 0.04 0.10 0.08 0.08 0.09 0.11 0.14 0.16 0.23 0.23 0.34 0.56 1.22 1.29 0.93 1.29 0.92 0.60 0.78 0.89 0.94 0.81 0.73 0.60 0.63 0.59 0.52 0.36
0.01 0.01 0.02 0.01 0.07 0.03 0.09 0.13 0.08 0.08 0.10 0.11 0.13 0.14 0.18 0.32 0.69 1.01 1.09 1.10 0.98 0.74 0.72 0.78 0.89 0.70 0.61 0.47 0.48 0.56 0.61 0.40
0.05 0.10 0.04 0.03 0.04 0.09 0.16 0.16 0.17 0.19 0.15 0.16 0.20 0.20 0.25 0.28 0.50 1.03 1.15 1.21 1.38 1.15 1.02 1.12 0.97 0.96 0.71 0.64 0.58 0.64 0.59 0.48
0.35 0.18 0.04 0.02 0.07 0.14 0.24 0.23 0.27 0.30 0.30 0.26 0.31 0.37 0.28 0.28 0.41 0.97 1.28 1.27 1.27 1.42 1.79 1.80 1.59 1.41 1.41 1.10 0.93 0.77 0.61 0.58
0.19 0.17 0.10 0.09 0.15 0.23 0.36 0.36 0.38 0.40 0.39 0.48 0.42 0.37 0.35 0.30 0.31 0.46 0.99 1.54 1.66 1.33 1.34 1.86 1.89 1.72 1.63 1.56 1.63 1.57 1.29 1.22
0.22 0.20 0.15 0.16 0.16 0.29 0.48 0.54 0.47 0.46 0.47 0.53 0.55 0.41 0.35 0.37 0.42 0.54 0.51 0.92 1.53 2.11 1.75 1.61 1.83 1.68 2.04 2.27 2.27 2.39 2.40 2.35
0.40 0.37 0.22 0.17 0.17 0.27 0.46 0.50 0.40 0.47 0.52 0.53 0.66 0.74 0.68 0.71 0.91 1.07 1.14 1.34 1.73 2.63 3.32 3.03 2.88 3.02 2.55 2.74 2.85 2.64 2.68 2.54
0.63 0.68 0.44 0.25 0.19 0.33 0.46 0.43 0.49 0.58 0.85 0.93 1.02 0.93 0.86 0.81 1.02 1.56 1.95 1.53 1.90 2.01 2.62 3.48 3.63 3.49 3.50 3.23 3.13 2.70 2.57 2.39
0.91 0.96 0.75 0.45 0.31 0.37 0.47 0.54 0.52 0.61 0.78 0.96 1.18 1.55 1.82 1.72 1.67 2.11 2.35 2.00 2.14 2.81 2.72 2.78 3.20 3.21 3.74 3.85 3.41 3.14 2.91 2.63
1.30 1.20 0.86 0.63 0.52 0.41 0.33 0.54 0.83 0.72 0.83 1.09 1.12 1.36 1.92 2.43 2.66 2.79 3.42 3.79 3.13 3.23 3.13 2.49 2.29 2.33 2.61 3.48 3.36 2.81 2.63 2.33
1.40 1.90 1.56 0.93 0.67 0.60 0.52 0.48 0.73 0.86 1.10 1.27 1.79 2.11 2.04 2.31 2.38 2.37 2.55 3.00 2.71 3.00 2.94 2.75 2.40 2.24 2.34 2.40 3.05 3.04 2.38 2.18
1.60 1.81 2.11 1.52 1.37 1.15 0.91 0.75 0.75 0.92 1.00 1.26 1.25 1.53 1.94 2.18 2.46 2.66 3.20 3.14 3.29 3.44 3.66 2.64 2.16 2.00 1.82 1.72 1.75 2.25 2.55 2.16
0.96 1.09 1.60 1.42 1.33 1.22 0.93 0.84 0.85 0.78 0.77 0.98 1.36 1.12 1.35 1.40 1.55 1.84 2.09 2.52 2.92 3.42 3.58 3.11 2.36 2.18 2.04 1.74 1.60 1.56 1.95 2.38
0.94 0.80 0.77 0.81 0.79 0.79 0.74 0.84 0.82 0.95 0.92 0.81 0.89 0.91 0.96 1.07 1.07 1.17 1.18 1.26 1.31 1.63 2.24 2.93 2.92 2.37 2.60 2.29 1.94 1.73 1.73 2.02
0.73 0.69 0.68 0.66 0.55 0.59 0.70 0.64 0.68 0.55 0.85 0.90 0.73 0.78 0.90 0.76 0.75 0.79 0.81 0.93 1.20 1.20 1.16 1.46 2.03 2.18 3.03 2.97 2.89 1.87 1.82 1.88
0.44 0.24 0.22 0.26 0.34 0.37 0.48 0.60 0.54 0.59 0.55 0.53 0.76 0.63 0.49 0.49 0.51 0.65 0.69 0.87 0.92 0.94 1.07 1.05 1.17 1.40 2.02 2.31 3.41 3.19 2.19 1.95

GFSFLT1_prec_precacc_243.txt.gz
Total_Precipitation_Accumulation
0.00 0.01 0.03 0.04 0.09 0.38 0.79 1.20 1.72 2.90 2.09 1.22 0.73 0.71 0.74 0.74 0.85 0.90 1.45 0.96 0.91 0.95 0.56 0.49 0.42 0.25 0.15 0.14 0.13 0.19 0.13 0.19
0.01 0.01 0.04 0.03 0.16 0.53 0.85 0.92 1.05 0.95 0.50 0.42 0.42 0.58 0.78 0.89 0.96 0.80 1.45 1.20 0.79 1.03 1.14 0.66 0.57 0.37 0.27 0.20 0.25 0.29 0.38 0.35
0.01 0.05 0.11 0.18 0.33 0.38 0.26 0.15 0.11 0.17 0.19 0.23 0.23 0.29 0.47 0.56 1.17 0.89 1.10 1.29 0.69 0.67 0.98 1.02 0.94 0.66 0.67 0.64 0.53 0.43 0.38 0.52
0.04 0.06 0.07 0.06 0.04 0.10 0.08 0.08 0.09 0.11 0.14 0.16 0.23 0.23 0.34 0.56 1.22 1.29 0.93 1.29 0.92 0.60 0.78 0.89 0.94 0.81 0.73 0.60 0.63 0.59 0.53 0.40
0.01 0.01 0.02 0.01 0.07 0.03 0.09 0.13 0.08 0.08 0.10 0.11 0.13 0.14 0.18 0.32 0.69 1.01 1.09 1.10 0.98 0.74 0.72 0.78 0.89 0.70 0.61 0.47 0.48 0.56 0.62 0.42
0.05 0.10 0.04 0.03 0.04 0.09 0.16 0.16 0.17 0.19 0.15 0.16 0.20 0.20 0.25 0.28 0.50 1.03 1.15 1.21 1.38 1.15 1.02 1.12 0.97 0.96 0.71 0.64 0.58 0.65 0.61 0.48
0.35 0.18 0.04 0.02 0.07 0.14 0.24 0.23 0.27 0.30 0.30 0.26 0.31 0.37 0.28 0.28 0.41 0.97 1.28 1.27 1.27 1.42 1.79 1.80 1.59 1.41 1.41 1.10 0.93 0.79 0.62 0.58
0.19 0.17 0.10 0.09 0.15 0.23 0.36 0.36 0.38 0.40 0.39 0.48 0.42 0.37 0.35 0.30 0.31 0.46 0.99 1.54 1.66 1.33 1.34 1.86 1.89 1.72 1.63 1.56 1.66 1.60 1.32 1.24
0.22 0.20 0.15 0.16 0.16 0.29 0.48 0.54 0.47 0.46 0.47 0.53 0.55 0.41 0.35 0.37 0.43 0.54 0.51 0.92 1.53 2.11 1.75 1.61 1.83 1.68 2.12 2.34 2.31 2.45 2.46 2.38
0.40 0.37 0.22 0.17 0.17 0.27 0.46 0.50 0.40 0.47 0.52 0.53 0.66 0.74 0.68 0.71 0.92 1.07 1.14 1.34 1.73 2.63 3.32 3.03 2.88 3.02 2.59 2.75 2.90 2.70 2.70 2.55
0.63 0.68 0.44 0.25 0.19 0.33 0.46 0.43 0.49 0.58 0.85 0.93 1.02 0.93 0.86 0.84 1.02 1.56 1.95 1.54 1.90 2.01 2.62 3.48 3.64 3.49 3.50 3.25 3.18 2.73 2.59 2.39
0.91 0.96 0.75 0.45 0.31 0.37 0.47 0.54 0.52 0.61 0.78 0.96 1.18 1.58 1.83 1.80 1.68 2.12 2.38 2.05 2.18 2.83 2.72 2.78 3.20 3.21 3.74 3.85 3.41 3.15 2.91 2.63
1.30 1.20 0.86 0.63 0.52 0.41 0.33 0.54 0.83 0.72 0.83 1.09 1.13 1.45 2.03 2.50 2.69 2.82 3.51 3.88 3.24 3.31 3.15 2.50 2.34 2.36 2.66 3.50 3.37 2.82 2.63 2.33
1.40 1.90 1.56 0.93 0.67 0.60 0.52 0.48 0.73 0.86 1.10 1.29 1.88 2.27 2.15 2.36 2.40 2.40 2.69 3.10 2.81 3.06 2.95 2.77 2.49 2.33 2.42 2.44 3.06 3.04 2.38 2.18
1.60 1.81 2.11 1.52 1.37 1.15 0.91 0.75 0.75 0.92 1.00 1.27 1.27 1.55 1.95 2.19 2.47 2.70 3.33 3.31 3.42 3.56 3.78 2.73 2.26 2.10 1.87 1.75 1.77 2.25 2.55 2.16
0.96 1.09 1.60 1.42 1.33 1.22 0.93 0.84 0.85 0.78 0.77 0.98 1.40 1.18 1.40 1.44 1.58 1.90 2.19 2.63 3.00 3.49 3.66 3.19 2.43 2.25 2.10 1.77 1.61 1.56 1.95 2.38
0.94 0.80 0.77 0.81 0.79 0.79 0.74 0.84 0.83 0.96 0.93 0.82 0.90 0.94 1.03 1.16 1.13 1.26 1.25 1.33 1.37 1.73 2.31 2.98 2.96 2.40 2.63 2.31 1.95 1.73 1.73 2.02
0.73 0.69 0.68 0.66 0.55 0.59 0.70 0.64 0.69 0.55 0.86 0.91 0.73 0.80 0.92 0.79 0.79 0.83 0.84 0.95 1.25 1.28 1.27 1.53 2.09 2.20 3.04 2.97 2.89 1.87 1.82 1.88
0.44 0.24 0.22 0.26 0.34 0.37 0.48 0.60 0.54 0.59 0.55 0.54 0.78 0.66 0.52 0.51 0.52 0.66 0.70 0.88 0.94 0.96 1.10 1.08 1.18 1.41 2.03 2.31 3.41 3.19 2.19 1.95

GFSFLT1_prec_precacc_246.txt.gz
Total_Precipitation_Accumulation
0.00 0.01 0.03 0.04 0.09 0.38 0.79 1.20 1.72 2.90 2.09 1.22 0.73 0.71 0.74 0.74 0.85 0.90 1.45 0.96 0.91 0.95 0.56 0.49 0.42 0.25 0.15 0.14 0.13 0.19 0.13 0.19
0.01 0.01 0.04 0.03 0.16 0.53 0.85 0.92 1.05 0.95 0.50 0.42 0.42 0.58 0.78 0.89 0.96 0.80 1.45 1.20 0.79 1.03 1.14 0.66 0.57 0.37 0.27 0.20 0.25 0.29 0.38 0.35
0.01 0.05 0.11 0.18 0.33 0.38 0.26 0.15 0.11 0.17 0.19 0.23 0.23 0.29 0.47 0.56 1.17 0.89 1.10 1.29 0.69 0.67 0.98 1.02 0.94 0.66 0.67 0.64 0.53 0.43 0.38 0.52
0.04 0.06 0.07 0.06 0.04 0.10 0.08 0.08 0.09 0.11 0.14 0.16 0.23 0.23 0.34 0.56 1.22 1.29 0.93 1.29 0.92 0.60 0.78 0.89 0.94 0.81 0.73 0.60 0.63 0.59 0.53 0.40
0.01 0.01 0.02 0.01 0.07 0.03 0.09 0.13 0.08 0.08 0.10 0.11 0.13 0.14 0.18 0.32 0.69 1.01 1.09 1.10 0.98 0.74 0.72 0.78 0.89 0.70 0.61 0.47 0.48 0.56 0.62 0.43
0.05 0.10 0.04 0.03 0.04 0.09 0.16 0.16 0.17 0.19 0.15 0.16 0.20 0.20 0.25 0.28 0.50 1.03 1.15 1.21 1.38 1.15 1.02 1.12 0.97 0.96 0.71 0.64 0.58 0.65 0.61 0.48
0.35 0.18 0.04 0.02 0.07 0.14 0.24 0.23 0.27 0.30 0.30 0.26 0.31 0.37 0.28 0.28 0.41 0.97 1.28 1.27 1.27 1.42 1.79 1.80 1.59 1.41 1.41 1.10 0.93 0.79 0.62 0.58
0.19 0.17 0.10 0.09 0.15 0.23 0.36 0.36 0.38 0.40 0.39 0.48 0.42 0.37 0.35 0.30 0.31 0.46 0.99 1.54 1.66 1.33 1.34 1.86 1.89 1.72 1.63 1.56 1.66 1.60 1.32 1.24
0.22 0.20 0.15 0.16 0.16 0.29 0.48 0.54 0.47 0.46 0.47 0.53 0.55 0.41 0.35 0.37 0.43 0.54 0.51 0.92 1.53 2.11 1.75 1.61 1.83 1.68 2.12 2.34 2.31 2.45 2.48 2.41
0.40 0.37 0.22 0.17 0.17 0.27 0.46 0.50 0.40 0.47 0.52 0.53 0.66 0.74 0.68 0.71 0.92 1.07 1.14 1.34 1.73 2.63 3.32 3.03 2.88 3.02 2.59 2.75 2.91 2.73 2.72 2.60
0.63 0.68 0.44 0.25 0.19 0.33 0.46 0.43 0.49 0.58 0.85 0.93 1.02 0.93 0.86 0.84 1.02 1.56 1.95 1.54 1.90 2.01 2.62 3.48 3.64 3.49 3.50 3.25 3.19 2.77 2.65 2.50
0.91 0.96 0.75 0.45 0.31 0.37 0.47 0.54 0.52 0.61 0.78 0.96 1.18 1.58 1.84 1.82 1.68 2.12 2.38 2.05 2.19 2.84 2.74 2.79 3.20 3.21 3.75 3.87 3.44 3.23 3.06 2.74
1.30 1.20 0.86 0.63 0.52 0.41 0.33 0.54 0.83 0.72 0.83 1.09 1.13 1.45 2.04 2.54 2.72 2.82 3.51 3.91 3.26 3.34 3.19 2.55 2.36 2.38 2.71 3.58 3.45 2.95 2.75 2.42
1.40 1.90 1.56 0.93 0.67 0.60 0.52 0.48 0.73 0.86 1.10 1.29 1.89 2.28 2.17 2.37 2.41 2.41 2.72 3.14 2.86 3.13 2.99 2.81 2.51 2.38 2.50 2.54 3.21 3.21 2.53 2.28
1.60 1.81 2.11 1.52 1.37 1.15 0.91 0.75 0.75 0.92 1.00 1.27 1.27 1.55 1.96 2.19 2.48 2.76 3.40 3.39 3.47 3.66 3.92 2.86 2.36 2.20 2.04 1.91 1.92 2.40 2.66 2.22
0.96 1.09 1.60 1.42 1.33 1.22 0.93 0.84 0.85 0.78 0.77 0.98 1.40 1.18 1.42 1.47 1.64 2.00 2.28 2.71 3.11 3.64 3.79 3.30 2.50 2.32 2.21 1.95 1.77 1.70 2.03 2.42
0.94 0.80 0.77 0.81 0.79 0.79 0.74 0.84 0.83 0.96 0.93 0.82 0.90 0.95 1.05 1.20 1.18 1.33 1.33 1.43 1.49 1.88 2.45 3.18 3.15 2.54 2.73 2.40 2.03 1.82 1.79 2.03
0.73 0.69 0.68 0.66 0.55 0.59 0.70 0.65 0.69 0.55 0.86 0.91 0.74 0.83 0.96 0.83 0.86 0.92 0.93 1.04 1.34 1.38 1.40 1.67 2.26 2.31 3.13 3.05 2.95 1.90 1.83 1.88
0.44 0.24 0.22 0.26 0.34 0.37 0.48 0.60 0.54 0.59 0.55 0.54 0.78 0.68 0.54 0.53 0.54 0.68 0.76 0.96 1.01 1.03 1.20 1.21 1.33 1.52 2.11 2.36 3.45 3.23 2.20 1.95

GFSFLT1_prec_precacc_252.txt.gz
Total_Precipitation_Accumulation
0.00 0.01 0.03 0.04 0.09 0.38 0.79 1.20 1.72 2.90 2.09 1.22 0.73 0.71 0.74 0.74 0.85 0.90 1.45 0.96 0.91 0.95 0.56 0.49 0.42 0.25 0.15 0.14 0.13 0.19 0.13 0.19
0.01 0.01 0.04 0.03 0.16 0.53 0.85 0.92 1.05 0.95 0.50 0.42 0.42 0.58 0.78 0.89 0.96 0.80 1.45 1.20 0.79 1.03 1.14 0.66 0.57 0.37 0.27 0.20 0.25 0.29 0.38 0.35
0.01 0.05 0.11 0.18 0.33 0.38 0.26 0.15 0.11 0.17 0.19 0.23 0.23 0.29 0.47 0.56 1.17 0.89 1.10 1.29 0.69 0.67 0.98 1.02 0.94 0.66 0.67 0.64 0.53 0.43 0.38 0.52
0.04 0.06 0.07 0.06 0.04 0.10 0.08 0.08 0.09 0.11 0.14 0.16 0.23 0.23 0.34 0.56 1.22 1.29 0.93 1.29 0.92 0.60 0.78 0.89 0.94 0.81 0.73 0.60 0.63 0.59 0.53 0.40
0.01 0.01 0.02 0.01 0.07 0.03 0.09 0.13 0.08 0.08 0.10 0.11 0.13 0.14 0.18 0.32 0.69 1.01 1.09 1.10 0.98 0.74 0.72 0.78 0.89 0.70 0.61 0.47 0.48 0.56 0.62 0.43
0.05 0.10 0.04 0.03 0.04 0.09 0.16 0.16 0.17 0.19 0.15 0.16 0.20 0.20 0.25 0.28 0.50 1.03 1.15 1.21 1.38 1.15 1.02 1.12 0.97 0.96 0.71 0.64 0.58 0.65 0.61 0.48
0.35 0.18 0.04 0.02 0.07 0.14 0.24 0.23 0.27 0.30 0.30 0.26 0.31 0.37 0.28 0.28 0.41 0.97 1.28 1.27 1.27 1.42 1.79 1.80 1.59 1.41 1.41 1.10 0.93 0.79 0.62 0.58
0.19 0.17 0.10 0.09 0.15 0.23 0.36 0.36 0.38 0.40 0.39 0.48 0.42 0.37 0.35 0.30 0.31 0.46 0.99 1.54 1.66 1.33 1.34 1.86 1.89 1.72 1.63 1.56 1.66 1.60 1.32 1.24
0.22 0.20 0.15 0.16 0.16 0.29 0.48 0.54 0.47 0.46 0.47 0.53 0.55 0.41 0.35 0.37 0.43 0.54 0.51 0.92 1.53 2.11 1.75 1.61 1.83 1.68 2.12 2.34 2.31 2.45 2.48 2.41
0.40 0.37 0.22 0.17 0.17 0.27 0.46 0.50 0.40 0.47 0.52 0.53 0.66 0.74 0.68 0.71 0.92 1.07 1.14 1.34 1.73 2.63 3.32 3.03 2.88 3.02 2.59 2.75 2.91 2.73 2.72 2.61
0.63 0.68 0.44 0.25 0.19 0.33 0.46 0.43 0.49 0.58 0.85 0.93 1.02 0.93 0.86 0.84 1.02 1.56 1.95 1.54 1.90 2.01 2.62 3.48 3.64 3.49 3.50 3.25 3.19 2.77 2.66 2.58
0.91 0.96 0.75 0.45 0.31 0.37 0.47 0.54 0.52 0.61 0.78 0.96 1.18 1.58 1.84 1.82 1.68 2.12 2.38 2.05 2.19 2.84 2.74 2.79 3.20 3.21 3.75 3.87 3.44 3.23 3.12 2.87
1.30 1.20 0.86 0.63 0.52 0.41 0.33 0.54 0.83 0.72 0.83 1.09 1.13 1.45 2.04 2.54 2.72 2.82 3.51 3.91 3.26 3.34 3.19 2.55 2.36 2.38 2.71 3.58 3.45 2.96 2.81 2.57
1.40 1.90 1.56 0.93 0.67 0.60 0.52 0.48 0.73 0.86 1.10 1.29 1.89 2.28 2.17 2.37 2.41 2.41 2.72 3.14 2.86 3.13 3.00 2.81 2.53 2.42 2.51 2.54 3.21 3.22 2.58 2.37
1.60 1.81 2.11 1.52 1.37 1.15 0.91 0.75 0.75 0.92 1.00 1.27 1.27 1.55 1.96 2.19 2.48 2.76 3.40 3.39 3.48 3.67 3.95 2.91 2.41 2.28 2.12 1.94 1.96 2.52 2.82 2.45
0.96 1.09 1.60 1.42 1.33 1.22 0.93 0.84 0.85 0.78 0.77 0.98 1.40 1.18 1.42 1.47 1.64 2.00 2.28 2.72 3.15 3.69 3.87 3.37 2.59 2.40 2.28 2.03 1.90 1.91 2.34 2.75
0.94 0.80 0.77 0.81 0.79 0.79 0.74 0.84 0.83 0.96 0.93 0.82 0.90 0.95 1.05 1.20 1.18 1.34 1.36 1.47 1.54 1.94 2.54 3.30 3.25 2.62 2.81 2.58 2.22 2.09 2.20 2.52
0.73 0.69 0.68 0.66 0.55 0.59 0.70 0.65 0.69 0.55 0.86 0.91 0.74 0.83 0.99 0.85 0.89 0.94 0.97 1.08 1.38 1.43 1.48 1.77 2.37 2.41 3.24 3.17 3.08 2.04 2.04 2.32
0.44 0.24 0.22 0.26 0.34 0.37 0.48 0.62 0.56 0.60 0.55 0.54 0.78 0.70 0.56 0.54 0.56 0.71 0.78 0.98 1.06 1.09 1.27 1.30 1.47 1.66 2.25 2.50 3.58 3.38 2.35 2.11

GFSFLT1_prec_precacc_258.txt.gz
Total_Precipitation_Accumulation
0.00 0.01 0.03 0.04 0.09 0.38 0.79 1.20 1.72 2.90 2.09 1.22 0.73 0.71 0.74 0.74 0.85 0.90 1.45 0.96 0.91 0.95 0.56 0.49 0.42 0.25 0.15 0.14 0.13 0.19 0.13 0.19
0.01 0.01 0.04 0.03 0.16 0.53 0.85 0.92 1.05 0.95 0.50 0.42 0.42 0.58 0.78 0.89 0.96 0.80 1.45 1.20 0.79 1.03 1.14 0.66 0.57 0.37 0.27 0.20 0.25 0.29 0.38 0.35
0.01 0.05 0.11 0.18 0.33 0.38 0.26 0.15 0.11 0.17 0.19 0.23 0.23 0.29 0.47 0.56 1.17 0.89 1.10 1.29 0.69 0.67 0.98 1.02 0.94 0.66 0.67 0.64 0.53 0.43 0.38 0.52
0.04 0.06 0.07 0.06 0.04 0.10 0.08 0.08 0.09 0.11 0.14 0.16 0.23 0.23 0.34 0.57 1.23 1.30 0.93 1.29 0.92 0.60 0.78 0.89 0.94 0.81 0.73 0.60 0.63 0.59 0.53 0.40
0.01 0.01 0.02 0.01 0.07 0.03 0.09 0.13 0.08 0.08 0.10 0.11 0.13 0.14 0.18 0.32 0.69 1.01 1.09 1.10 0.98 0.74 0.72 0.78 0.89 0.70 0.61 0.47 0.48 0.56 0.62 0.43
0.05 0.10 0.04 0.03 0.04 0.09 0.16 0.16 0.17 0.19 0.15 0.16 0.20 0.20 0.25 0.28 0.50 1.03 1.15 1.21 1.38 1.15 1.02 1.12 0.97 0.96 0.71 0.64 0.58 0.65 0.61 0.48
0.35 0.18 0.04 0.02 0.07 0.14 0.24 0.23 0.27 0.30 0.30 0.26 0.31 0.37 0.28 0.28 0.41 0.97 1.28 1.27 1.27 1.42 1.79 1.80 1.59 1.41 1.41 1.10 0.93 0.79 0.62 0.58
0.19 0.17 0.10 0.09 0.15 0.23 0.36 0.36 0.38 0.40 0.39 0.48 0.42 0.37 0.35 0.30 0.31 0.46 0.99 1.54 1.66 1.33 1.34 1.86 1.89 1.72 1.63 1.56 1.66 1.60 1.32 1.24
0.22 0.20 0.15 0.16 0.16 0.29 0.48 0.54 0.47 0.46 0.47 0.53 0.55 0.41 0.35 0.37 0.43 0.54 0.51 0.92 1.53 2.11 1.75 1.61 1.83 1.68 2.12 2.34 2.31 2.45 2.48 2.41
0.40 0.37 0.22 0.17 0.17 0.27 0.46 0.50 0.40 0.47 0.52 0.53 0.66 0.74 0.68 0.71 0.92 1.07 1.14 1.34 1.73 2.63 3.32 3.03 2.88 3.02 2.59 2.75 2.91 2.73 2.72 2.61
0.63 0.68 0.44 0.25 0.19 0.33 0.46 0.43 0.49 0.58 0.85 0.93 1.02 0.93 0.86 0.84 1.02 1.56 1.95 1.54 1.90 2.01 2.62 3.48 3.64 3.49 3.50 3.25 3.19 2.77 2.66 2.58
0.91 0.96 0.75 0.45 0.31 0.37 0.47 0.54 0.52 0.61 0.78 0.96 1.18 1.58 1.84 1.82 1.68 2.12 2.38 2.05 2.19 2.84 2.74 2.79 3.20 3.21 3.75 3.87 3.44 3.23 3.12 2.87
1.30 1.20 0.86 0.63 0.52 0.41 0.33 0.54 0.83 0.72 0.83 1.09 1.13 1.45 2.04 2.54 2.72 2.82 3.51 3.91 3.26 3.34 3.19 2.55 2.36 2.38 2.71 3.58 3.45 2.96 2.81 2.57
1.40 1.90 1.56 0.93 0.67 0.60 0.52 0.48 0.73 0.86 1.10 1.29 1.89 2.28 2.17 2.37 2.41 2.41 2.72 3.14 2.86 3.13 3.00 2.81 2.53 2.42 2.51 2.54 3.21 3.22 2.58 2.37
1.60 1.81 2.11 1.52 1.37 1.15 0.91 0.75 0.75 0.92 1.00 1.27 1.27 1.55 1.96 2.19 2.48 2.76 3.40 3.39 3.48 3.67 3.95 2.91 2.41 2.28 2.12 1.94 1.97 2.56 2.82 2.45
0.96 1.09 1.60 1.42 1.33 1.22 0.93 0.84 0.85 0.78 0.77 0.98 1.40 1.18 1.42 1.47 1.64 2.00 2.28 2.72 3.15 3.69 3.87 3.38 2.59 2.40 2.28 2.04 2.00 1.97 2.37 2.79
0.96 0.80 0.77 0.81 0.79 0.79 0.74 0.84 0.83 0.96 0.93 0.82 0.90 0.95 1.05 1.20 1.18 1.34 1.36 1.47 1.54 1.94 2.55 3.31 3.25 2.62 2.82 2.68 2.37 2.19 2.29 2.55
0.85 0.72 0.69 0.66 0.55 0.59 0.70 0.65 0.69 0.55 0.86 0.91 0.74 0.83 0.99 0.85 0.89 0.94 0.97 1.08 1.38 1.43 1.48 1.77 2.37 2.41 3.28 3.29 3.22 2.14 2.09 2.34
0.83 0.39 0.26 0.27 0.34 0.37 0.48 0.62 0.56 0.60 0.55 0.54 0.78 0.70 0.56 0.54 0.56 0.71 0.79 0.98 1.06 1.09 1.27 1.30 1.47 1.66 2.27 2.55 3.68 3.46 2.36 2.11

GFSFLT1_prec_precacc_261.txt.gz
Total_Precipitation_Accumulation
0.00 0.01 0.03 0.04 0.09 0.38 0.79 1.20 1.72 2.90 2.09 1.22 0.73 0.71 0.74 0.74 0.85 0.90 1.45 0.96 0.91 0.95 0.56 0.49 0.42 0.25 0.15 0.14 0.13 0.19 0.13 0.19
0.01 0.01 0.04 0.03 0.16 0.53 0.85 0.92 1.05 0.95 0.51 0.42 0.42 0.58 0.78 0.89 0.96 0.80 1.45 1.20 0.79 1.03 1.14 0.66 0.57 0.37 0.27 0.20 0.25 0.29 0.38 0.35
0.01 0.05 0.11 0.18 0.33 0.38 0.26 0.15 0.11 0.17 0.19 0.23 0.23 0.29 0.47 0.56 1.17 0.89 1.10 1.29 0.69 0.67 0.98 1.02 0.94 0.66 0.67 0.64 0.53 0.43 0.38 0.52
0.04 0.06 0.07 0.06 0.04 0.10 0.08 0.08 0.09 0.11 0.14 0.16 0.23 0.23 0.34 0.57 1.23 1.30 0.93 1.29 0.92 0.60 0.78 0.89 0.94 0.81 0.73 0.60 0.63 0.59 0.53 0.40
0.01 0.01 0.02 0.01 0.07 0.03 0.09 0.13 0.08 0.08 0.10 0.11 0.13 0.14 0.18 0.32 0.69 1.01 1.09 1.10 0.98 0.74 0.72 0.78 0.89 0.70 0.61 0.47 0.48 0.56 0.62 0.43
0.05 0.10 0.04 0.03 0.04 0.09 0.16 0.16 0.17 0.20 0.16 0.16 0.20 0.20 0.25 0.28 0.50 1.03 1.15 1.21 1.38 1.15 1.02 1.12 0.97 0.96 0.71 0.64 0.58 0.65 0.61 0.48
0.35 0.18 0.04 0.02 0.07 0.14 0.24 0.23 0.27 0.31 0.31 0.26 0.31 0.37 0.28 0.28 0.41 0.97 1.28 1.27 1.27 1.42 1.79 1.80 1.59 1.41 1.41 1.10 0.93 0.79 0.62 0.58
0.19 0.17 0.10 0.09 0.15 0.23 0.36 0.36 0.38 0.40 0.39 0.48 0.42 0.37 0.35 0.30 0.31 0.46 0.99 1.54 1.66 1.33 1.34 1.86 1.89 1.72 1.63 1.56 1.66 1.60 1.32 1.24
0.22 0.20 0.15 0.16 0.16 0.29 0.48 0.54 0.47 0.46 0.47 0.53 0.55 0.41 0.35 0.37 0.43 0.54 0.51 0.92 1.53 2.11 1.75 1.61 1.83 1.68 2.12 2.34 2.31 2.45 2.48 2.41
0.40 0.37 0.22 0.17 0.17 0.27 0.46 0.50 0.40 0.47 0.52 0.53 0.66 0.74 0.68 0.71 0.92 1.07 1.14 1.34 1.73 2.63 3.32 3.03 2.88 3.02 2.59 2.75 2.91 2.73 2.72 2.61
0.63 0.68 0.44 0.25 0.19 0.33 0.46 0.43 0.49 0.58 0.85 0.93 1.02 0.93 0.86 0.84 1.02 1.56 1.95 1.54 1.90 2.01 2.62 3.48 3.64 3.49 3.50 3.25 3.19 2.77 2.66 2.58
0.91 0.96 0.75 0.45 0.31 0.37 0.47 0.54 0.52 0.61 0.78 0.96 1.18 1.58 1.84 1.82 1.68 2.12 2.38 2.05 2.19 2.84 2.74 2.79 3.20 3.21 3.75 3.87 3.44 3.23 3.12 2.87
1.30 1.20 0.86 0.63 0.52 0.41 0.33 0.54 0.83 0.72 0.83 1.09 1.13 1.45 2.04 2.54 2.72 2.82 3.51 3.91 3.26 3.34 3.19 2.55 2.36 2.38 2.71 3.58 3.45 2.96 2.81 2.57
1.40 1.90 1.56 0.93 0.67 0.60 0.52 0.48 0.73 0.86 1.10 1.29 1.89 2.28 2.17 2.37 2.41 2.41 2.72 3.14 2.86 3.13 3.00 2.81 2.53 2.42 2.51 2.54 3.21 3.22 2.58 2.37
1.61 1.81 2.11 1.52 1.37 1.15 0.91 0.75 0.75 0.92 1.00 1.27 1.27 1.55 1.96 2.19 2.48 2.76 3.40 3.39 3.48 3.67 3.95 2.91 2.41 2.28 2.12 1.94 1.97 2.56 2.82 2.45
1.03 1.11 1.61 1.42 1.33 1.22 0.93 0.84 0.85 0.78 0.77 0.98 1.40 1.18 1.42 1.47 1.64 2.00 2.28 2.72 3.15 3.69 3.87 3.38 2.59 2.40 2.28 2.04 2.00 1.97 2.37 2.80
1.09 0.87 0.79 0.81 0.79 0.79 0.74 0.84 0.83 0.96 0.93 0.82 0.90 0.95 1.05 1.20 1.18 1.34 1.36 1.47 1.54 1.94 2.55 3.31 3.26 2.62 2.82 2.68 2.37 2.19 2.29 2.56
1.04 0.81 0.72 0.66 0.55 0.59 0.70 0.66 0.69 0.55 0.86 0.91 0.74 0.83 0.99 0.85 0.89 0.94 0.97 1.08 1.38 1.43 1.48 1.77 2.38 2.41 3.28 3.29 3.22 2.15 2.09 2.34
1.09 0.56 0.38 0.32 0.35 0.37 0.48 0.62 0.56 0.60 0.55 0.54 0.78 0.70 0.56 0.54 0.57 0.71 0.79 0.99 1.07 1.09 1.28 1.30 1.47 1.66 2.27 2.55 3.68 3.46 2.36 2.11

GFSFLT1_prec_precacc_264.txt.gz
Total_Precipitation_Accumulation
0.00 0.01 0.03 0.04 0.09 0.38 0.79 1.20 1.72 2.90 2.09 1.22 0.73 0.71 0.74 0.74 0.85 0.90 1.45 0.96 0.91 0.95 0.56 0.49 0.42 0.25 0.15 0.14 0.13 0.19 0.13 0.19
0.01 0.01 0.04 0.03 0.16 0.53 0.85 0.92 1.05 0.95 0.51 0.42 0.42 0.58 0.78 0.89 0.96 0.80 1.45 1.20 0.79 1.03 1.14 0.66 0.57 0.37 0.27 0.20 0.25 0.29 0.38 0.35
0.01 0.05 0.11 0.18 0.33 0.38 0.26 0.15 0.11 0.17 0.19 0.23 0.23 0.29 0.47 0.56 1.17 0.89 1.10 1.29 0.69 0.67 0.98 1.02 0.94 0.66 0.67 0.64 0.53 0.43 0.38 0.52
0.04 0.06 0.07 0.06 0.04 0.10 0.08 0.08 0.09 0.11 0.14 0.16 0.23 0.23 0.34 0.57 1.23 1.30 0.93 1.29 0.92 0.60 0.78 0.89 0.94 0.81 0.73 0.60 0.63 0.59 0.53 0.40
0.01 0.01 0.02 0.01 0.07 0.03 0.09 0.13 0.08 0.09 0.10 0.11 0.13 0.14 0.18 0.32 0.69 1.01 1.09 1.10 0.98 0.74 0.72 0.78 0.89 0.70 0.61 0.47 0.48 0.56 0.62 0.43
0.05 0.10 0.04 0.03 0.04 0.09 0.16 0.16 0.17 0.20 0.17 0.17 0.20 0.20 0.25 0.28 0.50 1.03 1.15 1.21 1.38 1.15 1.02 1.12 0.97 0.96 0.71 0.64 0.58 0.65 0.61 0.48
0.35 0.18 0.04 0.02 0.07 0.14 0.24 0.23 0.27 0.31 0.31 0.29 0.31 0.37 0.28 0.28 0.41 0.97 1.28 1.27 1.27 1.42 1.79 1.80 1.59 1.41 1.41 1.10 0.93 0.79 0.62 0.58
0.19 0.17 0.10 0.09 0.15 0.23 0.36 0.36 0.38 0.40 0.39 0.49 0.42 0.37 0.35 0.30 0.31 0.46 0.99 1.54 1.66 1.33 1.34 1.86 1.89 1.72 1.63 1.56 1.66 1.60 1.32 1.24
0.22 0.20 0.15 0.16 0.16 0.29 0.48 0.54 0.47 0.46 0.47 0.53 0.55 0.41 0.35 0.37 0.43 0.54 0.51 0.92 1.53 2.11 1.75 1.61 1.83 1.68 2.12 2.34 2.31 2.45 2.48 2.41
0.40 0.37 0.22 0.17 0.17 0.27 0.46 0.50 0.40 0.47 0.52 0.56 0.66 0.75 0.68 0.71 0.92 1.07 1.14 1.34 1.73 2.63 3.32 3.03 2.88 3.02 2.59 2.75 2.91 2.73 2.72 2.61
0.63 0.68 0.44 0.25 0.19 0.33 0.46 0.43 0.49 0.59 0.85 0.96 1.07 0.94 0.86 0.84 1.02 1.56 1.95 1.54 1.90 2.01 2.62 3.48 3.64 3.49 3.50 3.25 3.19 2.77 2.66 2.58
0.91 0.96 0.75 0.45 0.31 0.37 0.47 0.54 0.52 0.61 0.78 0.96 1.18 1.61 1.84 1.83 1.68 2.12 2.38 2.05 2.19 2.84 2.74 2.79 3.20 3.21 3.75 3.87 3.44 3.23 3.12 2.87
1.30 1.20 0.87 0.64 0.52 0.41 0.33 0.54 0.83 0.72 0.83 1.09 1.13 1.48 2.08 2.55 2.72 2.82 3.51 3.91 3.26 3.34 3.19 2.55 2.36 2.38 2.71 3.58 3.45 2.96 2.81 2.57
1.44 1.93 1.57 0.95 0.68 0.60 0.52 0.48 0.73 0.86 1.10 1.29 1.89 2.31 2.23 2.38 2.41 2.41 2.72 3.14 2.86 3.13 3.00 2.81 2.53 2.42 2.51 2.54 3.21 3.22 2.58 2.37
1.72 1.95 2.17 1.53 1.37 1.15 0.91 0.75 0.75 0.92 1.00 1.30 1.30 1.56 1.97 2.19 2.48 2.76 3.40 3.39 3.48 3.67 3.95 2.91 2.41 2.28 2.12 1.94 1.97 2.56 2.82 2.45
1.21 1.28 1.74 1.44 1.33 1.22 0.93 0.84 0.85 0.78 0.77 0.99 1.47 1.28 1.51 1.51 1.66 2.01 2.29 2.72 3.15 3.69 3.87 3.38 2.59 2.40 2.28 2.04 2.00 1.97 2.37 2.80
1.36 1.14 1.02 0.89 0.79 0.79 0.74 0.84 0.83 0.96 0.93 0.82 0.92 1.04 1.16 1.26 1.22 1.38 1.40 1.47 1.55 1.94 2.55 3.31 3.26 2.62 2.82 2.68 2.37 2.19 2.29 2.56
1.23 1.07 0.94 0.77 0.57 0.59 0.70 0.66 0.70 0.56 0.86 0.91 0.74 0.85 1.05 0.91 0.94 1.00 0.99 1.09 1.39 1.43 1.49 1.78 2.38 2.41 3.28 3.29 3.22 2.15 2.09 2.34
1.15 0.75 0.57 0.42 0.38 0.40 0.50 0.63 0.57 0.60 0.56 0.54 0.78 0.70 0.60 0.65 0.68 0.79 0.88 1.09 1.10 1.10 1.28 1.30 1.47 1.66 2.27 2.55 3.68 3.46 2.36 2.12